| time (UTC) | temp F | wind direction | speed MPH | gust MPH | rain 1hr in | rain 24hr in | rain mn in | humidity % | barometer mb |
| 20260509192313 | 68 | 288 | 3.0 | 9.0 | 0.00 | 0.00 | 0.00 | 40 | 1010.9 |
| 20260509191808 | 68 | 215 | 3.0 | 6.0 | 0.00 | 0.00 | 0.00 | 46 | 1011.0 |
| 20260509191305 | 69 | 144 | 7.0 | 11.0 | 0.00 | 0.00 | 0.00 | 40 | 1011.4 |
| 20260509190800 | 70 | 215 | 2.0 | 4.0 | 0.00 | 0.00 | 0.00 | 45 | 1011.4 |
| 20260509190258 | 69 | 58 | 0.0 | 4.0 | 0.00 | 0.00 | 0.00 | 40 | 1011.1 |
| 20260509185755 | 67 | 227 | 2.0 | 6.0 | 0.00 | 0.00 | 0.00 | 47 | 1011.4 |
| 20260509185251 | 67 | 206 | 4.0 | 8.0 | 0.00 | 0.00 | 0.00 | 49 | 1011.4 |
| 20260509184749 | 67 | 209 | 2.0 | 7.0 | 0.00 | 0.00 | 0.00 | 41 | 1011.4 |
| 20260509184246 | 67 | 229 | 4.0 | 7.0 | 0.00 | 0.00 | 0.00 | 45 | 1011.2 |
| 20260509183742 | 69 | 179 | 6.0 | 7.0 | 0.00 | 0.00 | 0.00 | 47 | 1011.2 |
| 20260509183238 | 70 | 263 | 5.0 | 10.0 | 0.00 | 0.00 | 0.00 | 44 | 1011.4 |
| 20260509182734 | 69 | 272 | 3.0 | 13.0 | 0.00 | 0.00 | 0.00 | 43 | 1011.4 |
| 20260509182231 | 68 | 6 | 3.0 | 9.0 | 0.00 | 0.00 | 0.00 | 45 | 1011.5 |
| 20260509181728 | 70 | 222 | 6.0 | 13.0 | 0.00 | 0.00 | 0.00 | 48 | 1011.4 |
| 20260509181225 | 69 | 156 | 3.0 | 4.0 | 0.00 | 0.00 | 0.00 | 45 | 1011.7 |
| 20260509180722 | 67 | 241 | 1.0 | 7.0 | 0.00 | 0.00 | 0.00 | 51 | 1011.8 |
| 20260509180219 | 67 | 307 | 2.0 | 3.0 | 0.00 | 0.00 | 0.00 | 46 | 1011.9 |
| 20260509175715 | 67 | 181 | 4.0 | 7.0 | 0.00 | 0.00 | 0.00 | 45 | 1011.8 |
| 20260509175212 | 67 | 234 | 3.0 | 7.0 | 0.00 | 0.00 | 0.00 | 51 | 1011.8 |
| 20260509174707 | 67 | 220 | 5.0 | 10.0 | 0.00 | 0.00 | 0.00 | 49 | 1011.8 |
| 20260509174202 | 67 | 271 | 2.0 | 6.0 | 0.00 | 0.00 | 0.00 | 52 | 1012.1 |
| 20260509173659 | 67 | 181 | 3.0 | 3.0 | 0.00 | 0.00 | 0.00 | 53 | 1012.1 |
| 20260509173155 | 66 | 214 | 1.0 | 3.0 | 0.00 | 0.00 | 0.00 | 49 | 1012.2 |
| 20260509172651 | 65 | 348 | 2.0 | 2.0 | 0.00 | 0.00 | 0.00 | 53 | 1012.3 |
| 20260509172147 | 65 | 356 | 1.0 | 2.0 | 0.00 | 0.00 | 0.00 | 50 | 1012.4 |
| 20260509171643 | 65 | 22 | 1.0 | 2.0 | 0.00 | 0.00 | 0.00 | 51 | 1012.4 |
| 20260509171140 | 65 | 279 | 2.0 | 3.0 | 0.00 | 0.00 | 0.00 | 50 | 1012.4 |
| 20260509170636 | 64 | 355 | 1.0 | 2.0 | 0.00 | 0.00 | 0.00 | 55 | 1012.6 |
| 20260509170132 | 65 | 324 | 0.0 | 0.0 | 0.00 | 0.00 | 0.00 | 49 | 1012.8 |
| 20260509165631 | 64 | 104 | 0.0 | 2.0 | 0.00 | 0.00 | 0.00 | 50 | 1012.6 |
| 20260509165127 | 63 | 13 | 1.0 | 2.0 | 0.00 | 0.00 | 0.00 | 57 | 1012.5 |
| 20260509164623 | 62 | 36 | 2.0 | 4.0 | 0.00 | 0.00 | 0.00 | 54 | 1012.6 |
| 20260509164119 | 62 | 25 | 2.0 | 3.0 | 0.00 | 0.00 | 0.00 | 53 | 1012.6 |
| 20260509163617 | 62 | 48 | 4.0 | 4.0 | 0.00 | 0.00 | 0.00 | 54 | 1012.6 |
| 20260509163112 | 62 | 57 | 1.0 | 4.0 | 0.00 | 0.00 | 0.00 | 54 | 1012.7 |
| 20260509162610 | 61 | 45 | 0.0 | 0.0 | 0.00 | 0.00 | 0.00 | 55 | 1012.8 |
| 20260509162105 | 61 | 73 | 2.0 | 3.0 | 0.00 | 0.00 | 0.00 | 57 | 1012.8 |
| 20260509161602 | 61 | 44 | 1.0 | 1.0 | 0.00 | 0.00 | 0.00 | 58 | 1012.7 |
| 20260509161056 | 61 | 76 | 1.0 | 2.0 | 0.00 | 0.00 | 0.00 | 57 | 1012.9 |
| 20260509160553 | 61 | 24 | 3.0 | 3.0 | 0.00 | 0.00 | 0.00 | 56 | 1012.6 |
| 20260509160048 | 61 | 13 | 2.0 | 3.0 | 0.00 | 0.00 | 0.00 | 56 | 1012.7 |
| 20260509155544 | 62 | 2 | 2.0 | 2.0 | 0.00 | 0.00 | 0.00 | 55 | 1012.6 |
| 20260509155041 | 62 | 12 | 2.0 | 3.0 | 0.00 | 0.00 | 0.00 | 54 | 1012.6 |
| 20260509154537 | 63 | 3 | 0.0 | 2.0 | 0.00 | 0.00 | 0.00 | 52 | 1012.5 |
| 20260509154035 | 64 | 25 | 0.0 | 2.0 | 0.00 | 0.00 | 0.00 | 52 | 1012.3 |
| 20260509153531 | 64 | 335 | 3.0 | 6.0 | 0.00 | 0.00 | 0.00 | 53 | 1012.3 |
| 20260509153028 | 64 | 267 | 1.0 | 3.0 | 0.00 | 0.00 | 0.00 | 51 | 1012.5 |
| 20260509152524 | 64 | 277 | 1.0 | 3.0 | 0.00 | 0.00 | 0.00 | 49 | 1012.4 |
| 20260509152021 | 64 | 128 | 1.0 | 2.0 | 0.00 | 0.00 | 0.00 | 48 | 1012.3 |
| 20260509151518 | 64 | 202 | 3.0 | 4.0 | 0.00 | 0.00 | 0.00 | 52 | 1012.3 |
| 20260509151016 | 64 | 273 | 1.0 | 3.0 | 0.00 | 0.00 | 0.00 | 52 | 1012.1 |
| 20260509150513 | 64 | 309 | 0.0 | 1.0 | 0.00 | 0.00 | 0.00 | 50 | 1012.2 |
| 20260509150011 | 64 | 325 | 2.0 | 3.0 | 0.00 | 0.00 | 0.00 | 51 | 1012.3 |
| 20260509145507 | 64 | 322 | 1.0 | 2.0 | 0.00 | 0.00 | 0.00 | 49 | 1012.3 |
| 20260509145001 | 63 | 24 | 1.0 | 1.0 | 0.00 | 0.00 | 0.00 | 49 | 1012.4 |
| 20260509144459 | 63 | 107 | 0.0 | 3.0 | 0.00 | 0.00 | 0.00 | 52 | 1012.5 |
| 20260509143955 | 63 | 284 | 0.0 | 4.0 | 0.00 | 0.00 | 0.00 | 50 | 1012.5 |
| 20260509143452 | 62 | 236 | 0.0 | 1.0 | 0.00 | 0.00 | 0.00 | 53 | 1012.5 |
| 20260509142949 | 62 | 246 | 4.0 | 6.0 | 0.00 | 0.00 | 0.00 | 51 | 1012.4 |
| 20260509142446 | 62 | 243 | 2.0 | 6.0 | 0.00 | 0.00 | 0.00 | 53 | 1012.6 |
| 20260509141941 | 64 | 36 | 0.0 | 4.0 | 0.00 | 0.00 | 0.00 | 49 | 1012.1 |
| 20260509141438 | 65 | 236 | 2.0 | 2.0 | 0.00 | 0.00 | 0.00 | 51 | 1012.3 |
| 20260509140935 | 62 | 282 | 0.0 | 1.0 | 0.00 | 0.00 | 0.00 | 51 | 1012.5 |
| 20260509140431 | 62 | 175 | 5.0 | 6.0 | 0.00 | 0.00 | 0.00 | 52 | 1012.6 |
| 20260509135930 | 62 | 218 | 4.0 | 6.0 | 0.00 | 0.00 | 0.00 | 59 | 1012.8 |
| 20260509135427 | 62 | 302 | 2.0 | 4.0 | 0.00 | 0.00 | 0.00 | 50 | 1012.7 |
| 20260509134924 | 60 | 197 | 1.0 | 3.0 | 0.00 | 0.00 | 0.00 | 56 | 1013.0 |
| 20260509134421 | 60 | 199 | 3.0 | 6.0 | 0.00 | 0.00 | 0.00 | 59 | 1013.0 |
| 20260509133919 | 60 | 180 | 2.0 | 3.0 | 0.00 | 0.00 | 0.00 | 56 | 1013.0 |
| 20260509133415 | 59 | 259 | 1.0 | 3.0 | 0.00 | 0.00 | 0.00 | 65 | 1013.2 |
| 20260509132914 | 58 | 187 | 0.0 | 4.0 | 0.00 | 0.00 | 0.00 | 61 | 1013.4 |
| 20260509132411 | 58 | 243 | 2.0 | 3.0 | 0.00 | 0.00 | 0.00 | 65 | 1013.4 |
| 20260509131908 | 57 | 220 | 3.0 | 6.0 | 0.00 | 0.00 | 0.00 | 64 | 1013.2 |
| 20260509131405 | 56 | 247 | 2.0 | 4.0 | 0.00 | 0.00 | 0.00 | 68 | 1013.4 |
| 20260509130902 | 56 | 191 | 2.0 | 6.0 | 0.00 | 0.00 | 0.00 | 66 | 1013.5 |
| 20260509130357 | 55 | 323 | 0.0 | 1.0 | 0.00 | 0.00 | 0.00 | 71 | 1013.6 |
| 20260509125854 | 55 | 101 | 0.0 | 1.0 | 0.00 | 0.00 | 0.00 | 71 | 1013.4 |
| 20260509125350 | 54 | 82 | 1.0 | 2.0 | 0.00 | 0.00 | 0.00 | 73 | 1013.7 |
| 20260509124847 | 54 | 53 | 0.0 | 2.0 | 0.00 | 0.00 | 0.00 | 73 | 1013.5 |
| 20260509124344 | 54 | 231 | 0.0 | 1.0 | 0.00 | 0.00 | 0.00 | 72 | 1013.4 |
| 20260509123842 | 53 | 53 | 0.0 | 0.0 | 0.00 | 0.00 | 0.00 | 73 | 1013.3 |
| 20260509123339 | 53 | 53 | 0.0 | 0.0 | 0.00 | 0.00 | 0.00 | 75 | 1013.5 |
| 20260509122835 | 52 | 53 | 0.0 | 0.0 | 0.00 | 0.00 | 0.00 | 73 | 1013.5 |
| 20260509122332 | 52 | 53 | 0.0 | 0.0 | 0.00 | 0.00 | 0.00 | 75 | 1013.4 |
| 20260509121829 | 51 | 54 | 0.0 | 0.0 | 0.00 | 0.00 | 0.00 | 75 | 1013.4 |
| 20260509121326 | 51 | 56 | 1.0 | 1.0 | 0.00 | 0.00 | 0.00 | 76 | 1013.4 |
| 20260509120824 | 51 | 54 | 0.0 | 0.0 | 0.00 | 0.00 | 0.00 | 77 | 1013.4 |
| 20260509120321 | 50 | 46 | 0.0 | 0.0 | 0.00 | 0.00 | 0.00 | 80 | 1013.4 |
| 20260509115819 | 50 | 46 | 0.0 | 0.0 | 0.00 | 0.00 | 0.00 | 80 | 1013.4 |
| 20260509115316 | 50 | 44 | 1.0 | 2.0 | 0.00 | 0.00 | 0.00 | 79 | 1013.5 |
| 20260509114814 | 49 | 41 | 1.0 | 2.0 | 0.00 | 0.00 | 0.00 | 80 | 1013.6 |
| 20260509114312 | 49 | 37 | 0.0 | 1.0 | 0.00 | 0.00 | 0.00 | 81 | 1013.7 |
| 20260509113811 | 49 | 36 | 0.0 | 1.0 | 0.00 | 0.00 | 0.00 | 81 | 1013.7 |
| 20260509113307 | 49 | 13 | 0.0 | 0.0 | 0.00 | 0.00 | 0.00 | 82 | 1013.9 |
| 20260509112805 | 48 | 54 | 0.0 | 2.0 | 0.00 | 0.00 | 0.00 | 83 | 1013.6 |
| 20260509112306 | 48 | 38 | 1.0 | 2.0 | 0.00 | 0.00 | 0.00 | 81 | 1013.8 |
| 20260509111759 | 48 | 53 | 1.0 | 1.0 | 0.00 | 0.00 | 0.00 | 80 | 1013.4 |
| 20260509111255 | 48 | 71 | 0.0 | 0.0 | 0.00 | 0.00 | 0.00 | 81 | 1013.6 |
| 20260509110753 | 48 | 72 | 0.0 | 0.0 | 0.00 | 0.00 | 0.00 | 81 | 1013.6 |
| 20260509110249 | 47 | 74 | 0.0 | 0.0 | 0.00 | 0.00 | 0.00 | 82 | 1013.5 |
| 20260509105748 | 47 | 75 | 0.0 | 2.0 | 0.00 | 0.00 | 0.00 | 81 | 1013.6 |
| 20260509105245 | 47 | 73 | 0.0 | 0.0 | 0.00 | 0.00 | 0.00 | 83 | 1013.5 |
| 20260509104741 | 47 | 86 | 0.0 | 0.0 | 0.00 | 0.00 | 0.00 | 81 | 1013.8 |
| 20260509104238 | 46 | 103 | 0.0 | 0.0 | 0.00 | 0.00 | 0.00 | 81 | 1013.6 |
| 20260509103737 | 46 | 104 | 0.0 | 0.0 | 0.00 | 0.00 | 0.00 | 81 | 1013.6 |
| 20260509103233 | 46 | 100 | 0.0 | 0.0 | 0.00 | 0.00 | 0.00 | 83 | 1013.5 |
| 20260509102732 | 46 | 101 | 0.0 | 0.0 | 0.00 | 0.00 | 0.00 | 81 | 1013.5 |
| 20260509102228 | 46 | 90 | 0.0 | 0.0 | 0.00 | 0.00 | 0.00 | 82 | 1013.6 |
| 20260509101725 | 45 | 90 | 0.0 | 0.0 | 0.00 | 0.00 | 0.00 | 82 | 1013.6 |
| 20260509101222 | 45 | 90 | 0.0 | 0.0 | 0.00 | 0.00 | 0.00 | 82 | 1013.6 |
| 20260509100719 | 45 | 91 | 0.0 | 0.0 | 0.00 | 0.00 | 0.00 | 82 | 1013.4 |
| 20260509100216 | 45 | 93 | 0.0 | 0.0 | 0.00 | 0.00 | 0.00 | 82 | 1013.4 |
| 20260509095713 | 45 | 93 | 0.0 | 0.0 | 0.00 | 0.00 | 0.00 | 82 | 1013.4 |
| 20260509095210 | 45 | 93 | 0.0 | 0.0 | 0.00 | 0.00 | 0.00 | 82 | 1013.6 |
| 20260509094707 | 46 | 93 | 0.0 | 0.0 | 0.00 | 0.00 | 0.00 | 82 | 1013.6 |
| 20260509094203 | 46 | 93 | 0.0 | 0.0 | 0.00 | 0.00 | 0.00 | 81 | 1013.5 |
| 20260509093702 | 46 | 93 | 0.0 | 0.0 | 0.00 | 0.00 | 0.00 | 81 | 1013.6 |
| 20260509093158 | 46 | 93 | 0.0 | 0.0 | 0.00 | 0.00 | 0.00 | 81 | 1013.5 |
| 20260509092656 | 46 | 93 | 0.0 | 0.0 | 0.00 | 0.00 | 0.00 | 81 | 1013.7 |
| 20260509092155 | 46 | 93 | 0.0 | 0.0 | 0.00 | 0.00 | 0.00 | 80 | 1013.8 |
| 20260509091653 | 46 | 93 | 0.0 | 0.0 | 0.00 | 0.00 | 0.00 | 79 | 1013.9 |
| 20260509091148 | 47 | 93 | 0.0 | 0.0 | 0.00 | 0.00 | 0.00 | 78 | 1013.8 |
| 20260509090646 | 46 | 78 | 0.0 | 0.0 | 0.00 | 0.00 | 0.00 | 79 | 1013.7 |
| 20260509090143 | 47 | 56 | 0.0 | 1.0 | 0.00 | 0.00 | 0.00 | 78 | 1013.8 |
| 20260509085641 | 47 | 104 | 0.0 | 0.0 | 0.00 | 0.00 | 0.00 | 78 | 1013.9 |
| 20260509085137 | 47 | 106 | 0.0 | 0.0 | 0.00 | 0.00 | 0.00 | 77 | 1013.9 |
| 20260509084635 | 48 | 112 | 0.0 | 0.0 | 0.00 | 0.00 | 0.00 | 75 | 1013.9 |
| 20260509084131 | 48 | 134 | 0.0 | 0.0 | 0.00 | 0.00 | 0.00 | 77 | 1013.9 |
| 20260509083629 | 47 | 67 | 0.0 | 0.0 | 0.00 | 0.00 | 0.00 | 77 | 1013.9 |
| 20260509083125 | 47 | 67 | 0.0 | 0.0 | 0.00 | 0.00 | 0.00 | 78 | 1014.1 |
| 20260509082623 | 48 | 69 | 0.0 | 0.0 | 0.00 | 0.00 | 0.00 | 77 | 1014.1 |
| 20260509082119 | 48 | 110 | 0.0 | 0.0 | 0.00 | 0.00 | 0.00 | 74 | 1014.1 |
| 20260509081616 | 48 | 196 | 0.0 | 0.0 | 0.00 | 0.00 | 0.00 | 73 | 1014.1 |
| 20260509081114 | 48 | 204 | 1.0 | 2.0 | 0.00 | 0.00 | 0.00 | 74 | 1014.2 |
| 20260509080612 | 48 | 146 | 2.0 | 3.0 | 0.00 | 0.00 | 0.00 | 73 | 1013.9 |
| 20260509080109 | 48 | 199 | 1.0 | 2.0 | 0.00 | 0.00 | 0.00 | 73 | 1013.8 |
| 20260509075607 | 48 | 191 | 0.0 | 3.0 | 0.00 | 0.00 | 0.00 | 72 | 1013.8 |
| 20260509075104 | 48 | 177 | 2.0 | 4.0 | 0.00 | 0.00 | 0.00 | 72 | 1014.1 |
| 20260509074600 | 48 | 162 | 1.0 | 2.0 | 0.00 | 0.00 | 0.00 | 74 | 1014.1 |
| 20260509074051 | 47 | 139 | 1.0 | 4.0 | 0.00 | 0.00 | 0.00 | 72 | 1014.2 |
| 20260509073548 | 47 | 149 | 1.0 | 1.0 | 0.00 | 0.00 | 0.00 | 76 | 1013.9 |
| 20260509073044 | 47 | 135 | 0.0 | 0.0 | 0.00 | 0.00 | 0.00 | 78 | 1014.1 |
| 20260509072540 | 47 | 5 | 0.0 | 0.0 | 0.00 | 0.00 | 0.00 | 78 | 1014.0 |
| 20260509072038 | 47 | 98 | 0.0 | 0.0 | 0.00 | 0.00 | 0.00 | 78 | 1014.2 |
| 20260509071534 | 47 | 70 | 0.0 | 0.0 | 0.00 | 0.00 | 0.00 | 77 | 1014.1 |
| 20260509071032 | 47 | 324 | 0.0 | 0.0 | 0.00 | 0.00 | 0.00 | 78 | 1014.3 |
| 20260509070529 | 47 | 324 | 0.0 | 0.0 | 0.00 | 0.00 | 0.00 | 76 | 1014.3 |
| 20260509070025 | 47 | 171 | 1.0 | 3.0 | 0.00 | 0.00 | 0.00 | 75 | 1014.3 |
| 20260509065520 | 47 | 214 | 1.0 | 2.0 | 0.00 | 0.00 | 0.00 | 75 | 1014.4 |
| 20260509065017 | 46 | 186 | 3.0 | 3.0 | 0.00 | 0.00 | 0.00 | 78 | 1014.4 |
| 20260509064515 | 45 | 61 | 1.0 | 1.0 | 0.00 | 0.00 | 0.00 | 80 | 1014.5 |
| 20260509064013 | 45 | 59 | 0.0 | 0.0 | 0.00 | 0.00 | 0.00 | 79 | 1014.4 |
| 20260509063508 | 45 | 60 | 0.0 | 1.0 | 0.00 | 0.00 | 0.00 | 81 | 1014.5 |
| 20260509063005 | 45 | 191 | 0.0 | 2.0 | 0.00 | 0.00 | 0.00 | 78 | 1014.4 |
| 20260509062502 | 44 | 166 | 0.0 | 1.0 | 0.00 | 0.00 | 0.00 | 81 | 1014.5 |
| 20260509062000 | 44 | 95 | 0.0 | 0.0 | 0.00 | 0.00 | 0.00 | 82 | 1014.6 |
| 20260509061457 | 44 | 70 | 0.0 | 0.0 | 0.00 | 0.00 | 0.00 | 81 | 1014.5 |
| 20260509060954 | 43 | 119 | 0.0 | 0.0 | 0.00 | 0.00 | 0.00 | 82 | 1015.0 |
| 20260509060452 | 43 | 120 | 0.0 | 0.0 | 0.00 | 0.00 | 0.00 | 82 | 1014.7 |
| 20260509055947 | 43 | 103 | 0.0 | 0.0 | 0.00 | 0.00 | 0.00 | 82 | 1014.7 |
| 20260509055442 | 43 | 116 | 0.0 | 0.0 | 0.00 | 0.00 | 0.00 | 81 | 1014.7 |
| 20260509054939 | 43 | 85 | 0.0 | 0.0 | 0.00 | 0.00 | 0.00 | 81 | 1014.6 |
| 20260509054436 | 44 | 85 | 0.0 | 0.0 | 0.00 | 0.00 | 0.00 | 81 | 1014.8 |
| 20260509053934 | 43 | 163 | 0.0 | 0.0 | 0.00 | 0.00 | 0.00 | 81 | 1014.8 |
| 20260509053432 | 44 | 186 | 0.0 | 1.0 | 0.00 | 0.00 | 0.00 | 81 | 1015.2 |
| 20260509052929 | 44 | 150 | 0.0 | 0.0 | 0.00 | 0.00 | 0.00 | 80 | 1015.0 |
| 20260509052426 | 44 | 148 | 0.0 | 0.0 | 0.00 | 0.00 | 0.00 | 78 | 1015.1 |
| 20260509051924 | 45 | 114 | 0.0 | 0.0 | 0.00 | 0.00 | 0.00 | 77 | 1015.0 |
| 20260509051422 | 44 | 119 | 0.0 | 0.0 | 0.00 | 0.00 | 0.00 | 79 | 1015.1 |
| 20260509050918 | 45 | 132 | 0.0 | 0.0 | 0.00 | 0.00 | 0.00 | 77 | 1015.1 |
| 20260509050415 | 45 | 211 | 0.0 | 0.0 | 0.00 | 0.00 | 0.00 | 76 | 1015.0 |
| 20260509045912 | 46 | 215 | 0.0 | 0.0 | 0.00 | 0.00 | 0.00 | 75 | 1015.1 |
| 20260509045409 | 46 | 136 | 0.0 | 1.0 | 0.00 | 0.00 | 0.00 | 74 | 1015.1 |
| 20260509044906 | 45 | 135 | 0.0 | 0.0 | 0.00 | 0.00 | 0.00 | 76 | 1015.1 |
| 20260509044404 | 46 | 132 | 0.0 | 0.0 | 0.00 | 0.00 | 0.00 | 75 | 1015.0 |
| 20260509043900 | 46 | 134 | 0.0 | 0.0 | 0.00 | 0.00 | 0.00 | 75 | 1015.1 |
| 20260509043356 | 47 | 155 | 0.0 | 1.0 | 0.00 | 0.00 | 0.00 | 74 | 1015.2 |
| 20260509042852 | 47 | 203 | 0.0 | 0.0 | 0.00 | 0.00 | 0.00 | 73 | 1015.0 |
| 20260509042349 | 48 | 143 | 0.0 | 1.0 | 0.00 | 0.00 | 0.00 | 70 | 1015.1 |
| 20260509041845 | 48 | 122 | 0.0 | 0.0 | 0.00 | 0.00 | 0.00 | 70 | 1015.0 |
| 20260509041342 | 49 | 134 | 0.0 | 0.0 | 0.00 | 0.00 | 0.00 | 68 | 1015.1 |
| 20260509040841 | 50 | 204 | 1.0 | 3.0 | 0.00 | 0.00 | 0.00 | 65 | 1015.0 |
| 20260509040338 | 49 | 189 | 0.0 | 0.0 | 0.00 | 0.00 | 0.00 | 69 | 1015.0 |
| 20260509035835 | 49 | 130 | 0.0 | 1.0 | 0.00 | 0.00 | 0.00 | 70 | 1015.0 |
| 20260509035332 | 49 | 132 | 0.0 | 0.0 | 0.00 | 0.00 | 0.00 | 69 | 1015.0 |
| 20260509034828 | 50 | 121 | 1.0 | 1.0 | 0.00 | 0.00 | 0.00 | 70 | 1015.0 |
| 20260509034326 | 50 | 162 | 0.0 | 1.0 | 0.00 | 0.00 | 0.00 | 68 | 1015.0 |
| 20260509033822 | 50 | 78 | 0.0 | 1.0 | 0.00 | 0.00 | 0.00 | 67 | 1015.0 |
| 20260509033320 | 49 | 180 | 1.0 | 2.0 | 0.00 | 0.00 | 0.00 | 70 | 1014.7 |
| 20260509032816 | 49 | 131 | 0.0 | 0.0 | 0.00 | 0.00 | 0.00 | 72 | 1014.8 |
| 20260509032314 | 48 | 125 | 0.0 | 0.0 | 0.00 | 0.00 | 0.00 | 73 | 1015.0 |
| 20260509031812 | 48 | 187 | 0.0 | 0.0 | 0.00 | 0.00 | 0.00 | 74 | 1015.0 |
| 20260509031309 | 49 | 97 | 0.0 | 0.0 | 0.00 | 0.00 | 0.00 | 73 | 1015.0 |
| 20260509030806 | 49 | 199 | 0.0 | 0.0 | 0.00 | 0.00 | 0.00 | 70 | 1015.0 |
| 20260509030304 | 49 | 260 | 1.0 | 3.0 | 0.00 | 0.00 | 0.00 | 70 | 1015.0 |
| 20260509025800 | 49 | 220 | 0.0 | 2.0 | 0.00 | 0.00 | 0.00 | 71 | 1015.0 |
| 20260509025256 | 49 | 139 | 0.0 | 1.0 | 0.00 | 0.00 | 0.00 | 69 | 1014.8 |
| 20260509024751 | 49 | 212 | 0.0 | 1.0 | 0.00 | 0.00 | 0.00 | 70 | 1015.1 |
| 20260509024248 | 49 | 214 | 0.0 | 1.0 | 0.00 | 0.00 | 0.00 | 69 | 1015.1 |
| 20260509023745 | 50 | 139 | 0.0 | 0.0 | 0.00 | 0.00 | 0.00 | 67 | 1015.2 |
| 20260509023242 | 49 | 147 | 0.0 | 0.0 | 0.00 | 0.00 | 0.00 | 68 | 1015.0 |
| 20260509022738 | 50 | 120 | 0.0 | 1.0 | 0.00 | 0.00 | 0.00 | 68 | 1015.0 |
| 20260509022236 | 49 | 102 | 0.0 | 0.0 | 0.00 | 0.00 | 0.00 | 69 | 1015.0 |
| 20260509021733 | 49 | 68 | 0.0 | 0.0 | 0.00 | 0.00 | 0.00 | 71 | 1014.8 |
| 20260509021230 | 50 | 66 | 0.0 | 1.0 | 0.00 | 0.00 | 0.00 | 70 | 1015.2 |
| 20260509020728 | 50 | 153 | 0.0 | 1.0 | 0.00 | 0.00 | 0.00 | 69 | 1015.1 |
| 20260509020225 | 49 | 149 | 0.0 | 1.0 | 0.00 | 0.00 | 0.00 | 69 | 1015.0 |
| 20260509015723 | 49 | 226 | 1.0 | 2.0 | 0.00 | 0.00 | 0.00 | 71 | 1014.8 |
| 20260509015221 | 49 | 175 | 0.0 | 2.0 | 0.00 | 0.00 | 0.00 | 74 | 1014.7 |
| 20260509014717 | 50 | 181 | 0.0 | 2.0 | 0.00 | 0.00 | 0.00 | 70 | 1014.6 |
| 20260509014214 | 51 | 145 | 0.0 | 0.0 | 0.00 | 0.00 | 0.00 | 66 | 1014.8 |
| 20260509013711 | 51 | 143 | 0.0 | 0.0 | 0.00 | 0.00 | 0.00 | 67 | 1014.8 |
| 20260509013206 | 51 | 142 | 0.0 | 0.0 | 0.00 | 0.00 | 0.00 | 66 | 1014.6 |
| 20260509012703 | 51 | 99 | 0.0 | 0.0 | 0.00 | 0.00 | 0.00 | 66 | 1014.7 |
| 20260509012200 | 52 | 97 | 0.0 | 0.0 | 0.00 | 0.00 | 0.00 | 65 | 1014.7 |
| 20260509011658 | 52 | 85 | 0.0 | 0.0 | 0.00 | 0.00 | 0.00 | 63 | 1014.6 |
| 20260509011155 | 52 | 171 | 0.0 | 0.0 | 0.00 | 0.00 | 0.00 | 67 | 1014.6 |
| 20260509010653 | 53 | 167 | 0.0 | 0.0 | 0.00 | 0.00 | 0.00 | 66 | 1014.7 |
| 20260509010149 | 53 | 104 | 0.0 | 0.0 | 0.00 | 0.00 | 0.00 | 62 | 1014.7 |
| 20260509005647 | 52 | 93 | 0.0 | 0.0 | 0.00 | 0.00 | 0.00 | 61 | 1014.6 |
| 20260509005143 | 53 | 88 | 0.0 | 0.0 | 0.00 | 0.00 | 0.00 | 61 | 1014.5 |
| 20260509004638 | 53 | 144 | 0.0 | 0.0 | 0.00 | 0.00 | 0.00 | 62 | 1014.6 |
| 20260509004136 | 53 | 195 | 0.0 | 0.0 | 0.00 | 0.00 | 0.00 | 61 | 1014.5 |
| 20260509003634 | 55 | 180 | 0.0 | 1.0 | 0.00 | 0.00 | 0.00 | 58 | 1014.4 |
| 20260509003131 | 55 | 143 | 0.0 | 0.0 | 0.00 | 0.00 | 0.00 | 57 | 1014.5 |
| 20260509002629 | 55 | 105 | 0.0 | 0.0 | 0.00 | 0.00 | 0.00 | 54 | 1014.4 |
| 20260509002126 | 56 | 67 | 2.0 | 2.0 | 0.00 | 0.00 | 0.00 | 54 | 1014.5 |
| 20260509001624 | 56 | 282 | 0.0 | 0.0 | 0.00 | 0.00 | 0.00 | 53 | 1014.4 |
| 20260509001119 | 57 | 171 | 0.0 | 0.0 | 0.00 | 0.00 | 0.00 | 52 | 1014.4 |
| 20260509000618 | 58 | 138 | 0.0 | 0.0 | 0.00 | 0.00 | 0.00 | 51 | 1014.4 |
| 20260509000114 | 58 | 128 | 0.0 | 0.0 | 0.00 | 0.00 | 0.00 | 49 | 1014.3 |
| 20260508235611 | 59 | 303 | 0.0 | 2.0 | 0.00 | 0.00 | 0.00 | 42 | 1014.4 |
| 20260508235107 | 58 | 172 | 2.0 | 2.0 | 0.00 | 0.00 | 0.00 | 45 | 1014.2 |
| 20260508234605 | 59 | 207 | 1.0 | 2.0 | 0.00 | 0.00 | 0.00 | 46 | 1014.0 |
| 20260508234101 | 60 | 262 | 1.0 | 1.0 | 0.00 | 0.00 | 0.00 | 46 | 1014.0 |
| 20260508233555 | 60 | 215 | 2.0 | 4.0 | 0.00 | 0.00 | 0.00 | 44 | 1013.7 |
| 20260508233052 | 62 | 231 | 1.0 | 6.0 | 0.00 | 0.00 | 0.00 | 41 | 1013.7 |
| 20260508232549 | 62 | 179 | 2.0 | 6.0 | 0.00 | 0.00 | 0.00 | 38 | 1013.5 |
| 20260508232046 | 62 | 244 | 3.0 | 3.0 | 0.00 | 0.00 | 0.00 | 39 | 1013.7 |
| 20260508231543 | 64 | 229 | 3.0 | 4.0 | 0.00 | 0.00 | 0.00 | 40 | 1013.6 |
| 20260508231040 | 67 | 228 | 3.0 | 6.0 | 0.00 | 0.00 | 0.00 | 35 | 1013.6 |
| 20260508230537 | 67 | 279 | 2.0 | 4.0 | 0.00 | 0.00 | 0.00 | 35 | 1013.6 |
| 20260508230033 | 67 | 248 | 2.0 | 4.0 | 0.00 | 0.00 | 0.00 | 35 | 1013.8 |
| 20260508225531 | 67 | 176 | 3.0 | 6.0 | 0.00 | 0.00 | 0.00 | 33 | 1013.8 |
| 20260508225027 | 67 | 231 | 2.0 | 3.0 | 0.00 | 0.00 | 0.00 | 32 | 1013.7 |
| 20260508224525 | 67 | 263 | 3.0 | 8.0 | 0.00 | 0.00 | 0.00 | 35 | 1014.0 |
| 20260508224022 | 67 | 186 | 5.0 | 10.0 | 0.00 | 0.00 | 0.00 | 33 | 1013.8 |
| 20260508223520 | 68 | 230 | 4.0 | 10.0 | 0.00 | 0.00 | 0.00 | 33 | 1013.8 |
| 20260508223017 | 68 | 175 | 2.0 | 4.0 | 0.00 | 0.00 | 0.00 | 35 | 1013.6 |
| 20260508222515 | 68 | 259 | 4.0 | 6.0 | 0.00 | 0.00 | 0.00 | 31 | 1013.6 |
| 20260508222012 | 68 | 158 | 4.0 | 7.0 | 0.00 | 0.00 | 0.00 | 31 | 1013.8 |
| 20260508221508 | 68 | 256 | 2.0 | 6.0 | 0.00 | 0.00 | 0.00 | 35 | 1013.7 |
| 20260508221004 | 65 | 259 | 3.0 | 8.0 | 0.00 | 0.00 | 0.00 | 36 | 1013.7 |
| 20260508220500 | 67 | 214 | 6.0 | 15.0 | 0.00 | 0.00 | 0.00 | 32 | 1013.7 |
| 20260508215956 | 69 | 180 | 8.0 | 9.0 | 0.00 | 0.00 | 0.00 | 31 | 1013.7 |
| 20260508215453 | 68 | 174 | 4.0 | 6.0 | 0.00 | 0.00 | 0.00 | 31 | 1013.6 |
| 20260508214950 | 67 | 119 | 7.0 | 9.0 | 0.00 | 0.00 | 0.00 | 33 | 1013.6 |
| 20260508214448 | 68 | 214 | 5.0 | 10.0 | 0.00 | 0.00 | 0.00 | 33 | 1013.4 |
| 20260508213943 | 69 | 185 | 3.0 | 8.0 | 0.00 | 0.00 | 0.00 | 31 | 1013.4 |
| 20260508213441 | 69 | 182 | 5.0 | 9.0 | 0.00 | 0.00 | 0.00 | 34 | 1013.6 |
| 20260508212936 | 68 | 240 | 2.0 | 7.0 | 0.00 | 0.00 | 0.00 | 35 | 1013.6 |
| 20260508212434 | 69 | 222 | 5.0 | 8.0 | 0.00 | 0.00 | 0.00 | 32 | 1013.8 |
| 20260508211929 | 69 | 170 | 2.0 | 3.0 | 0.00 | 0.00 | 0.00 | 31 | 1013.8 |
| 20260508211425 | 68 | 224 | 3.0 | 7.0 | 0.00 | 0.00 | 0.00 | 35 | 1013.8 |
| 20260508210923 | 69 | 225 | 6.0 | 8.0 | 0.00 | 0.00 | 0.00 | 34 | 1014.1 |
| 20260508210419 | 69 | 262 | 1.0 | 4.0 | 0.00 | 0.00 | 0.00 | 32 | 1014.0 |
| 20260508205915 | 69 | 193 | 5.0 | 10.0 | 0.00 | 0.00 | 0.00 | 37 | 1014.0 |
| 20260508205413 | 69 | 202 | 3.0 | 10.0 | 0.00 | 0.00 | 0.00 | 38 | 1014.1 |
| 20260508204909 | 67 | 125 | 3.0 | 7.0 | 0.00 | 0.00 | 0.00 | 33 | 1014.1 |
| 20260508204406 | 67 | 250 | 3.0 | 4.0 | 0.00 | 0.00 | 0.00 | 34 | 1014.1 |
| 20260508203901 | 66 | 271 | 4.0 | 9.0 | 0.00 | 0.00 | 0.00 | 32 | 1014.4 |
| 20260508203358 | 66 | 236 | 5.0 | 11.0 | 0.00 | 0.00 | 0.00 | 35 | 1014.2 |
| 20260508202853 | 68 | 296 | 2.0 | 4.0 | 0.00 | 0.00 | 0.00 | 35 | 1014.3 |
| 20260508202351 | 68 | 223 | 4.0 | 9.0 | 0.00 | 0.00 | 0.00 | 36 | 1014.4 |
| 20260508201848 | 67 | 185 | 4.0 | 11.0 | 0.00 | 0.00 | 0.00 | 35 | 1014.3 |
| 20260508201345 | 66 | 318 | 4.0 | 10.0 | 0.00 | 0.00 | 0.00 | 34 | 1014.4 |
| 20260508200841 | 66 | 61 | 0.0 | 8.0 | 0.00 | 0.00 | 0.00 | 36 | 1014.5 |
| 20260508200338 | 67 | 47 | 1.0 | 7.0 | 0.00 | 0.00 | 0.00 | 33 | 1014.6 |
| 20260508195834 | 68 | 227 | 9.0 | 13.0 | 0.00 | 0.00 | 0.00 | 33 | 1014.7 |
| 20260508195331 | 67 | 170 | 8.0 | 10.0 | 0.00 | 0.00 | 0.00 | 34 | 1014.8 |
| 20260508194827 | 67 | 256 | 4.0 | 13.0 | 0.00 | 0.00 | 0.00 | 38 | 1015.1 |
| 20260508194325 | 67 | 252 | 4.0 | 7.0 | 0.00 | 0.00 | 0.00 | 30 | 1015.0 |
| 20260508193822 | 68 | 263 | 2.0 | 10.0 | 0.00 | 0.00 | 0.00 | 36 | 1014.8 |
| 20260508193319 | 67 | 238 | 7.0 | 17.0 | 0.00 | 0.00 | 0.00 | 36 | 1015.2 |
| 20260508192815 | 66 | 160 | 8.0 | 9.0 | 0.00 | 0.00 | 0.00 | 35 | 1015.1 |